Showing default

YUNHAI 2-1B, 43910

Orbit data source: Space-Track

YUNHAI 2-1B, 43910 is a payload satellite owned by CASC (CN) in LEO that was launched on Sat, 29 Dec 2018 UTC via a CHANG ZHENG 2D/YZ-3 launch vehicle from the Jiuquan Satellite Launch Center, China (JSC). Payload-class satellites include a variety of spacecraft equipped with specific instruments for various scientific and technological missions. These include communications satellites like Starlink; space stations such as the ISS; scientific satellites like the Hubble; Earth observation satellites from companies like Planet Labs, Umbra, and HawkEye 360; GPS; miniature CubeSats for education and research; and military/defense satellites.

Loading next visibility...
Identifier
43910, 2018-112B
Orbit
LEO
Country
Flag of CNCN / PRC
Related business
Manufacturer
DFH Shenzhen
Mission
Operational Defense Meteo Radio Occ.
Bus & Motor
YH-2, Unknown motor
Mass
~100 kg wet, ~100 kg dry
Launch date (UTC)
2018-12-29 (7 years ago)
Launch vehicle
CHANG ZHENG 2D/YZ-3
Launch site
Jiuquan Satellite Launch Center, China (JSC)
Object type
Payload
Rocket body
Debris
Shape & HBR
Box + 2 Pan, 0.5 m
Radar Cross Section
0.166 m², Large (>1 m²)

Expand to show TLE details & history
Last TLE update: 6 hours ago

TLE from 6 hours ago
0 YUNHAI 2-1B
1 43910U 18112B   26035.18289714 -.00000051  00000-0  43486-4 0  9992
2 43910  50.0130 312.3997 0004802 115.6126 244.5286 14.28947351371228
Epoch: 2026-02-04T04:23Z
TLE epoch observation values (Epoch: 2026-02-04T04:23:22.312Z)
Latitude
-0.00003°
Longitude
112.20357°
Altitude
797.266 km
Speed
7.455 km/s
True Right ascension
20h 49m 35s
True Declination
0° 00' 00"
Sunlit
Object was in daylight at epoch
Visualization orbit readout
Latitude
Unknown
Longitude
Unknown
Altitude
Unknown
Speed
Unknown
Apparent Right ascension
Unknown
Apparent Declination
Unknown
Sunlit
N/A
Visualization observer readout
Local Sidereal Time
12:23:33
Azimuth
Unknown
Elevation
Unknown
Doppler factor
Unknown
Orbital elements
Apogee altitude
799.434 km
Perigee altitude
792.544 km
Semi-major axis
7,174.126 km
Eccentricity
0.00048
Inclination
50.013°
RAAN
312.3997°
Arg. of periapsis
115.6126°
True anomaly
244.47893°
Mean anomaly
244.5286°
Eccentric anomaly
244.50377°
Mean motion
3.57182 °/min
Orbital period
100.79 mins
BSTAR
0.000043486
Loading maneuver chart data...
Computing Atmospheric mass density...
Loading historical data...
Loading historical data...
Loading historical data...
Loading historical data...
Loading historical data...
Loading historical data...
Loading historical data...

Documentation

Showing up to 5 results
|